Simultaneous Nadir Overpasses (SNOs) Predictions

Prediction of SNOs between METOP-B and NOAA-19 Satellite Orbit:

Table of predicted SNOs for the next 14.0 days since TLE Epoch: 11/27/2021
Index Date (METOP-B) Time (METOP-B) Lat,Lon (METOP-B) SZA (METOP-B ) Date (NOAA-19) Time (NOAA-19) Lat,Lon (NOAA-19) SZA (NOAA-19 ) Distance(km) Time Diff (sec)
1 12/06/2021 12:33:00 -80.71,-157.09 75.34 12/06/2021 12:31:57 -80.71,-157.07 75.36 0.69 63
2 12/06/2021 13:23:41 80.70, 10.12 104.66 12/06/2021 13:22:52 80.71, 10.12 104.64 0.67 49
3 12/06/2021 14:14:22 -80.70, 177.42 75.35 12/06/2021 14:13:57 -80.70, 177.50 75.35 1.45 25
4 12/06/2021 15:05:03 80.69, -15.37 104.64 12/06/2021 15:04:52 80.71, -15.32 104.66 1.80 11
5 12/06/2021 15:55:44 -80.69, 151.93 75.36 12/06/2021 15:55:57 -80.70, 152.06 75.34 2.59 13
6 12/06/2021 16:46:24 80.71, -40.52 104.68 12/06/2021 16:46:51 80.69, -40.39 104.69 2.59 27
7 12/06/2021 17:37:05 -80.70, 126.79 75.33 12/06/2021 17:37:57 -80.70, 126.63 75.33 2.95 52



Historial Predications of SNOs between METOP-B and NOAA-19
